Location: Stuttgart
(48.8069°N, 9.1544°E)
Time: 03:58:59
(UTC+01:00)

N. Korean satellite - Visible Passes

Search period start: 18 November 2017 00:00
Search period end: 28 November 2017 00:00
Orbit: 460 x 515 km, 97.2° (Epoch: 17 November)

Date Brightness Start Highest point End Pass type
(mag) Time Alt. Az. Time Alt. Az. Time Alt. Az.
18 Nov 9.8 06:19:32 10° NE 06:22:08 18° E 06:24:44 10° SE visible
18 Nov 7.2 18:32:09 10° S 18:35:35 57° W 18:39:07 10° NNW visible
19 Nov 6.4 18:08:36 10° SSE 18:12:06 73° ENE 18:15:41 10° N visible
20 Nov 7.0 17:45:25 10° SE 17:48:41 38° ENE 17:52:02 10° N visible
20 Nov 9.5 19:20:02 10° SW 19:22:24 17° W 19:24:48 10° NW visible
21 Nov 8.8 06:42:01 10° NNE 06:45:23 31° E 06:48:45 10° SSE visible
21 Nov 7.7 17:22:35 10° ESE 17:25:21 22° ENE 17:28:10 10° NNE visible
21 Nov 8.5 18:55:36 10° SSW 18:58:44 30° W 19:01:57 10° NNW visible
22 Nov 9.8 06:19:07 10° NE 06:21:45 18° E 06:24:22 10° SE visible
22 Nov 7.2 18:31:41 10° S 18:35:09 57° W 18:38:44 10° NNW visible
23 Nov 10.5 05:57:43 10° E 05:58:01 10° E 05:58:19 10° E visible
23 Nov 6.4 18:08:07 10° SSE 18:11:38 73° ENE 18:15:16 10° N visible
24 Nov 7.5 07:04:48 10° NNE 07:08:31 57° E 07:12:13 10° S visible
24 Nov 7.0 17:44:55 10° SE 17:48:13 38° ENE 17:51:37 10° N visible
24 Nov 9.5 19:19:31 10° SW 19:21:56 17° W 19:24:23 10° NW visible
25 Nov 8.8 06:41:34 10° NNE 06:44:56 31° E 06:48:19 10° SSE visible
25 Nov 7.8 17:22:03 10° ESE 17:24:52 22° ENE 17:27:43 10° NNE visible
25 Nov 8.5 18:55:04 10° SSW 18:58:14 30° W 19:01:31 10° NNW visible
26 Nov 9.8 06:18:39 10° NE 06:21:17 18° E 06:23:54 10° SE visible
26 Nov 7.2 18:31:08 10° S 18:34:39 58° W 18:38:15 10° NNW visible
27 Nov 10.5 05:57:12 10° E 05:57:32 10° E 05:57:50 10° E visible
27 Nov 6.4 18:07:35 10° SSE 18:11:08 73° ENE 18:14:47 10° N visible
